Great Bend, KS

4:49 AM CDT on June 20, 2018 (GMT -0500)
Great Bend Municipal

Weather History for KGBD - September, 2017

Change the Weather History Date:

Thursday, September 14, 2017

  Actual Average Record
Temperature  
Mean Temperature 78 °F -  
Max Temperature 97 °F 79 °F 97 °F (1955)
Min Temperature 61 °F 58 °F 42 °F (1993)
Cooling Degree Days 14    
Growing Degree Days 28 (Base 50)    
Moisture  
Dew Point 53 °F    
Average Humidity 43    
Maximum Humidity 72    
Minimum Humidity 23    
Precipitation  
Precipitation 0.00 in - - ()
Sea Level Pressure  
Sea Level Pressure 29.71 in    
Wind  
Wind Speed 13 mph (South)    
Max Wind Speed 24 mph    
Max Gust Speed 32 mph    
Visibility 10 miles    
Events      
Averages and records for this station are not official NWS values.
T = Trace of Precipitation, MM = Missing Value Source: NWS Daily Summary

Daily Weather History Graph

Daily Weather History Graph

Search for Another Location

Airport or City:

Astronomy

Sep. 14, 2017 Rise Set
Actual Time 7:16 AM CDT 7:44 PM CDT
Civil Twilight 6:49 AM CDT 8:11 PM CDT
Nautical Twilight 6:18 AM CDT 8:42 PM CDT
Astronomical Twilight 5:46 AM CDT 9:14 PM CDT
Moon 1:18 AM CDT (9/14) 3:59 PM CDT (9/14)
Length of Visible Light 13h 21m
Length of Day
12h 28m
Waning Crescent, 34% of the Moon is Illuminated
Sep 14
Waning Crescent
Sep 20
New
Sep 27
First Quarter
Oct 5
Full
Oct 12
Last Quarter

Hourly Weather History & Observations

Time (CDT) Temp. Heat Index Dew Point Humidity Pressure Visibility Wind Dir Wind Speed Gust Speed Precip Events Conditions
12:56 AM 72.0 °F - 50.0 °F 46% 29.73 in 10.0 mi South 11.5 mph - N/A   Clear
1:56 AM 68.0 °F - 50.0 °F 52% 29.73 in 10.0 mi South 8.1 mph - N/A   Clear
2:56 AM 66.9 °F - 50.0 °F 54% 29.72 in 10.0 mi South 9.2 mph - N/A   Clear
3:56 AM 64.9 °F - 51.1 °F 61% 29.72 in 10.0 mi South 9.2 mph - N/A   Clear
4:56 AM 66.0 °F - 52.0 °F 60% 29.71 in 10.0 mi South 10.4 mph - N/A   Clear
5:56 AM 64.9 °F - 52.0 °F 63% 29.73 in 10.0 mi South 5.8 mph - N/A   Clear
6:56 AM 61.0 °F - 52.0 °F 72% 29.75 in 10.0 mi SSE 5.8 mph - N/A   Clear
7:56 AM 62.1 °F - 53.1 °F 72% 29.77 in 10.0 mi SSE 9.2 mph - N/A   Clear
9:56 AM 78.1 °F - 53.1 °F 42% 29.77 in 10.0 mi South 15.0 mph - N/A   Clear
10:56 AM 86.0 °F - 51.1 °F 30% 29.76 in 10.0 mi SSW 17.3 mph 26.5 mph N/A   Clear
11:56 AM 91.0 °F - 51.1 °F 25% 29.74 in 10.0 mi South 24.2 mph 31.1 mph N/A   Clear
12:56 PM 93.9 °F - 52.0 °F 24% 29.72 in 10.0 mi South 23.0 mph 32.2 mph N/A   Clear
1:56 PM 96.1 °F 93.5 °F 53.1 °F 23% 29.71 in 10.0 mi South 20.7 mph 28.8 mph N/A   Clear
2:56 PM 96.1 °F 93.8 °F 54.0 °F 24% 29.68 in 10.0 mi South 24.2 mph 29.9 mph N/A   Clear
3:56 PM 95.0 °F 93.0 °F 55.0 °F 26% 29.68 in 10.0 mi SSE 24.2 mph 31.1 mph N/A   Clear
5:56 PM 93.9 °F 92.6 °F 57.0 °F 29% 29.66 in 10.0 mi SSE 21.9 mph 27.6 mph N/A   Clear
6:56 PM 91.0 °F 89.7 °F 57.0 °F 32% 29.67 in 10.0 mi SSE 16.1 mph - N/A   Clear
7:56 PM 84.9 °F 83.9 °F 57.0 °F 38% 29.68 in 10.0 mi SSE 15.0 mph - N/A   Clear
8:56 PM 82.9 °F 82.1 °F 55.9 °F 39% 29.70 in 10.0 mi SSE 15.0 mph - N/A   Clear
9:56 PM 80.1 °F 80.2 °F 55.9 °F 43% 29.71 in 10.0 mi SSE 13.8 mph - N/A   Clear
10:56 PM 78.1 °F - 55.9 °F 46% 29.70 in 10.0 mi SSE 17.3 mph - N/A   Clear
11:56 PM 77.0 °F - 57.0 °F 50% 29.69 in 10.0 mi SSE 18.4 mph - N/A   Clear